Retour au catalogue

STARLINK-32543

ActifCommunicationsVLEO
NORAD 63364·PAYLOAD·🇺🇸 United States

Lancé Mar 26, 2025 depuis Vandenberg Space Force Base

Loading…

Prochains Passages (prochaines 24 heures)

TLE

FraisSource: CelesTrak SupGP

Époque: Sep 15, 2026, 02:06 UTC

1 63364C 25063B   26258.08798611 -.00013500  00000+0 -39843-3 0  2589
2 63364  53.1581 246.8625 0001384  83.9101 146.5147 15.34431254    19

Suivez STARLINK-32543 en temps réel avec AllMySat

Download on the App Store